TimeCST,TemperatureF,Dew PointF,Humidity,Sea Level PressureIn,VisibilityMPH,Wind Direction,Wind SpeedMPH,Gust SpeedMPH,PrecipitationIn,Events,Conditions,WindDirDegrees,DateUTC
12:53 AM,37.0,33.1,86,30.02,7.0,Calm,Calm,-,N/A,,Clear,0,2014-03-07 06:53:00
1:53 AM,37.0,33.1,86,30.01,6.0,Calm,Calm,-,N/A,,Clear,0,2014-03-07 07:53:00
2:39 AM,35.6,32.0,87,30.00,1.8,Calm,Calm,-,N/A,,Clear,0,2014-03-07 08:39:00
2:47 AM,33.8,30.2,87,30.00,3.0,Calm,Calm,-,N/A,,Clear,0,2014-03-07 08:47:00
2:53 AM,35.1,30.0,82,30.00,5.0,Calm,Calm,-,N/A,,Haze,0,2014-03-07 08:53:00
3:53 AM,36.0,32.0,86,30.02,7.0,Calm,Calm,-,N/A,,Clear,0,2014-03-07 09:53:00
4:53 AM,33.1,28.9,85,30.04,5.0,West,3.5,-,N/A,,Clear,270,2014-03-07 10:53:00
5:37 AM,32.0,28.4,87,30.04,2.5,Calm,Calm,-,N/A,,Clear,0,2014-03-07 11:37:00
5:45 AM,30.2,28.4,93,30.05,3.0,Calm,Calm,-,N/A,,Clear,0,2014-03-07 11:45:00
5:53 AM,32.0,28.9,88,30.05,4.0,Calm,Calm,-,N/A,,Clear,0,2014-03-07 11:53:00
6:00 AM,32.0,30.2,93,30.05,0.8,Calm,Calm,-,N/A,,Clear,0,2014-03-07 12:00:00
6:30 AM,32.0,28.4,87,30.06,2.5,Calm,Calm,-,N/A,,Clear,0,2014-03-07 12:30:00
6:38 AM,33.8,30.2,87,30.06,4.0,Calm,Calm,-,N/A,,Clear,0,2014-03-07 12:38:00
6:53 AM,34.0,30.0,85,30.07,4.0,Calm,Calm,-,N/A,,Clear,0,2014-03-07 12:53:00
7:16 AM,37.4,33.8,87,30.07,2.5,Calm,Calm,-,N/A,,Clear,0,2014-03-07 13:16:00
7:24 AM,37.4,35.6,93,30.08,3.0,Calm,Calm,-,N/A,,Clear,0,2014-03-07 13:24:00
7:53 AM,41.0,36.0,82,30.09,4.0,Calm,Calm,-,N/A,,Haze,0,2014-03-07 13:53:00
8:53 AM,46.9,35.1,63,30.08,9.0,Calm,Calm,-,N/A,,Clear,0,2014-03-07 14:53:00
9:53 AM,52.0,35.1,53,30.07,10.0,Calm,Calm,-,N/A,,Clear,0,2014-03-07 15:53:00
10:53 AM,57.0,33.1,40,30.06,10.0,Calm,Calm,-,N/A,,Clear,0,2014-03-07 16:53:00
11:53 AM,59.0,32.0,36,30.04,10.0,Calm,Calm,-,N/A,,Clear,0,2014-03-07 17:53:00
12:53 PM,61.0,33.1,35,30.01,10.0,Calm,Calm,-,N/A,,Clear,0,2014-03-07 18:53:00
1:53 PM,64.0,33.1,31,29.99,10.0,Calm,Calm,-,N/A,,Clear,0,2014-03-07 19:53:00
2:53 PM,64.0,34.0,33,29.99,10.0,NW,8.1,-,N/A,,Clear,320,2014-03-07 20:53:00
3:53 PM,64.0,35.1,34,29.98,10.0,WNW,10.4,16.1,N/A,,Clear,300,2014-03-07 21:53:00
4:53 PM,63.0,35.1,35,29.99,10.0,NW,5.8,-,N/A,,Clear,310,2014-03-07 22:53:00
5:53 PM,60.1,32.0,35,29.99,10.0,Calm,Calm,-,N/A,,Clear,0,2014-03-07 23:53:00
6:53 PM,53.1,36.0,52,30.01,10.0,WSW,5.8,-,N/A,,Clear,250,2014-03-08 00:53:00
7:53 PM,53.1,35.1,50,30.03,10.0,WSW,4.6,-,N/A,,Clear,250,2014-03-08 01:53:00
8:53 PM,48.9,36.0,61,30.04,10.0,WSW,3.5,-,N/A,,Clear,250,2014-03-08 02:53:00
9:53 PM,48.0,36.0,63,30.05,10.0,Calm,Calm,-,N/A,,Clear,0,2014-03-08 03:53:00
10:53 PM,48.9,36.0,61,30.05,10.0,WSW,3.5,-,N/A,,Clear,240,2014-03-08 04:53:00
11:53 PM,46.0,36.0,68,30.05,10.0,Calm,Calm,-,N/A,,Clear,0,2014-03-08 05:53:00